EW8907 Weather Reports


Display with metric or nautical units.
time (UTC)temp
F
wind
direction
speed
MPH
gust
MPH
rain 1hr
in
rain 24hr
in
rain mn
in
humidity
%
barometer
mb
20171215233011 36 299 4.0 7.0 0.01 0.04 0.00 97 1002.5
20171215230013 36 283 2.0 8.0 0.01 0.04 0.00 96 1002.4
20171215223011 36 286 2.0 5.0 0.01 0.03 0.03 97 1002.1
20171215220012 35 350 0.0 1.0 0.01 0.03 0.03 97 1002.0
20171215213011 35 177 1.0 2.0 0.00 0.02 0.02 96 1001.6
20171215210011 34 293 1.0 2.0 0.00 0.02 0.02 96 1001.5
20171215203012 34 0 0.0 0.0 0.00 0.02 0.02 95 1001.1
20171215200011 35 0 0.0 0.0 0.00 0.02 0.02 95 1000.8
20171215193011 36 201 0.0 1.0 0.00 0.02 0.02 95 1000.5
20171215190011 37 0 0.0 0.0 0.00 0.02 0.02 95 1000.1
20171215183012 38 0 0.0 0.0 0.00 0.02 0.02 95 999.6
20171215180012 38 0 0.0 0.0 0.00 0.02 0.02 95 999.2
20171215173011 38 0 0.0 0.0 0.00 0.02 0.02 95 998.7
20171215170012 38 0 0.0 0.0 0.00 0.03 0.02 95 998.5
20171215163011 38 0 0.0 0.0 0.00 0.03 0.02 95 998.2
20171215160011 38 213 0.0 1.0 0.00 0.03 0.02 94 997.9
20171215153011 38 0 0.0 0.0 0.00 0.03 0.02 94 997.3
20171215150012 38 0 0.0 0.0 0.00 0.03 0.02 95 997.0
20171215143012 38 205 1.0 4.0 0.00 0.03 0.02 95 996.5
20171215140011 38 145 2.0 4.0 0.00 0.03 0.02 95 995.9
20171215133012 38 129 3.0 6.0 0.00 0.03 0.02 95 995.5
20171215130011 37 128 3.0 6.0 0.00 0.03 0.02 96 995.3
20171215123011 37 130 3.0 7.0 0.00 0.03 0.02 96 994.9
20171215120011 37 240 4.0 10.0 0.00 0.03 0.02 96 994.5
20171215113011 37 169 4.0 9.0 0.00 0.03 0.02 97 994.1
20171215110011 37 152 4.0 9.0 0.00 0.03 0.02 97 993.9
20171215103011 37 83 4.0 10.0 0.00 0.03 0.02 96 993.7
20171215100011 37 143 4.0 9.0 0.00 0.03 0.02 97 993.3
20171215093011 37 148 4.0 11.0 0.00 0.03 0.02 96 992.9
20171215090012 37 92 4.0 13.0 0.00 0.03 0.02 97 992.4
20171215083011 36 101 4.0 10.0 0.00 0.03 0.02 96 991.8
20171215080011 36 105 5.0 12.0 0.00 0.03 0.02 96 991.4
20171215073011 36 130 5.0 10.0 0.01 0.03 0.02 96 991.0
20171215070012 36 103 5.0 10.0 0.01 0.03 0.02 96 990.7
20171215063010 36 85 5.0 15.0 0.01 0.02 0.02 96 990.3
20171215060010 36 111 5.0 10.0 0.01 0.02 0.02 96 990.2
20171215053010 36 134 5.0 13.0 0.00 0.02 0.01 96 989.9
20171215050012 36 108 6.0 14.0 0.00 0.03 0.01 96 989.7
20171215043011 36 98 5.0 10.0 0.00 0.05 0.01 96 989.3
20171215040011 36 288 6.0 16.0 0.00 0.06 0.01 96 989.1
20171215033011 36 288 5.0 14.0 0.00 0.07 0.01 96 988.8
20171215030011 35 138 4.0 10.0 0.01 0.07 0.01 96 988.7
20171215023010 35 111 3.0 9.0 0.01 0.07 0.01 96 988.4
20171215020010 35 237 3.0 6.0 0.00 0.06 0.00 96 988.2
20171215013011 35 291 4.0 8.0 0.00 0.06 0.00 95 987.9
20171215010011 36 257 4.0 10.0 0.00 0.06 0.00 96 987.7
20171215003010 35 267 4.0 11.0 0.00 0.06 0.00 96 987.7
20171215000011 34 265 2.0 6.0 0.00 0.06 0.00 96 987.7